Weather History for KBAX - May, 2013

Change the Weather History Date:

Tuesday, May 7, 2013

  Actual Average (KP58) Record (KP58)
Temperature  
Mean Temperature 56 °F -  
Max Temperature 73 °F 57 °F 82 °F (2000)
Min Temperature 40 °F 42 °F 37 °F (1997)
Degree Days  
Heating Degree Days 8    
Growing Degree Days 6 (Base 50)    
Moisture  
Dew Point 43 °F    
Average Humidity 57    
Maximum Humidity 93    
Minimum Humidity 32    
Precipitation  
Precipitation 0.00 in - - ()
Sea Level Pressure  
Sea Level Pressure 30.07 in    
Wind  
Wind Speed 2 mph (East)    
Max Wind Speed 10 mph    
Max Gust Speed 20 mph    
Visibility 10 miles    
Events      
Averages and records for this station are not official NWS values.
T = Trace of Precipitation, MM = Missing Value Source: NWS Daily Summary

Daily Weather History Graph

Daily Weather History Graph

Search for Another Location

Airport or City:

Trip Planner

Search our weather history database for the weather conditions in past years. The results will help you decide how hot, cold, wet, or windy it might be!

Date:

Astronomy

May. 07, 2013 Rise Set
Actual Time 6:15 AM EDT 8:42 PM EDT
Civil Twilight 5:43 AM EDT 9:14 PM EDT
Nautical Twilight 5:03 AM EDT 9:54 PM EDT
Astronomical Twilight 4:18 AM EDT 10:40 PM EDT
Moon 4:53 AM EDT (5/7) 6:37 PM EDT (5/7)
Length of Visible Light 15h 31m
Length of Day
14h 26m
Waning Crescent, 5% of the Moon is Illuminated
May 7
Waning Crescent
May 9
New
May 18
First Quarter
May 25
Full
May 31
Last Quarter

Hourly Weather History & Observations

Time (EDT) Temp. Windchill Dew Point Humidity Pressure Visibility Wind Dir Wind Speed Gust Speed Precip Events Conditions
12:12 AM 48.2 °F - 36.3 °F 63% 30.06 in 10.0 mi Calm Calm - N/A   Clear
12:33 AM 49.6 °F - 34.2 °F 55% 30.06 in 10.0 mi Calm Calm - N/A   Clear
12:52 AM 48.2 °F - 34.2 °F 58% 30.06 in 10.0 mi Calm Calm - N/A   Clear
1:12 AM 49.3 °F - 34.2 °F 56% 30.06 in 10.0 mi ESE 3.5 mph - N/A   Clear
1:33 AM 50.0 °F - 33.8 °F 54% 30.06 in 10.0 mi Calm Calm - N/A   Clear
1:52 AM 46.6 °F - 34.9 °F 64% 30.06 in 10.0 mi Calm Calm - N/A   Clear
2:12 AM 45.3 °F - 36.3 °F 71% 30.06 in 10.0 mi Calm Calm - N/A   Clear
2:33 AM 43.7 °F - 36.9 °F 77% 30.05 in 10.0 mi Calm Calm - N/A   Clear
2:52 AM 43.2 °F 40.5 °F 37.9 °F 82% 30.06 in 10.0 mi SE 4.6 mph - N/A   Clear
3:12 AM 48.7 °F - 37.6 °F 65% 30.06 in 10.0 mi ESE 4.6 mph - N/A   Clear
3:33 AM 45.5 °F - 36.9 °F 72% 30.05 in 10.0 mi Calm Calm - N/A   Clear
3:52 AM 44.8 °F - 37.8 °F 76% 30.05 in 10.0 mi Calm Calm - N/A   Clear
4:12 AM 42.3 °F - 36.9 °F 81% 30.05 in 10.0 mi Calm Calm - N/A   Clear
4:33 AM 42.3 °F - 38.3 °F 86% 30.05 in 10.0 mi Calm Calm - N/A   Clear
4:52 AM 42.6 °F - 38.3 °F 85% 30.05 in 10.0 mi Calm Calm - N/A   Clear
5:13 AM 43.2 °F - 39.7 °F 88% 30.05 in 10.0 mi Calm Calm - N/A   Clear
5:33 AM 41.0 °F - 37.8 °F 88% 30.05 in 10.0 mi Calm Calm - N/A   Clear
5:52 AM 41.4 °F - 38.3 °F 89% 30.06 in 10.0 mi Calm Calm - N/A   Clear
6:13 AM 41.2 °F - 38.7 °F 91% 30.07 in 10.0 mi Calm Calm - N/A   Clear
6:33 AM 40.6 °F - 38.7 °F 93% 30.07 in 10.0 mi Calm Calm - N/A   Clear
6:52 AM 42.1 °F - 40.1 °F 93% 30.07 in 10.0 mi Calm Calm - N/A   Clear
7:13 AM 43.7 °F - 41.9 °F 93% 30.08 in 10.0 mi Calm Calm - N/A   Clear
7:33 AM 47.5 °F - 45.3 °F 92% 30.08 in 10.0 mi Calm Calm - N/A   Clear
7:52 AM 51.6 °F - 48.0 °F 87% 30.09 in 10.0 mi Calm Calm - N/A   Clear
8:13 AM 57.9 °F - 44.4 °F 61% 30.09 in 10.0 mi Calm Calm - N/A   Clear
8:33 AM 60.4 °F - 43.0 °F 53% 30.10 in 10.0 mi SE 3.5 mph - N/A   Clear
8:52 AM 61.0 °F - 45.1 °F 56% 30.10 in 10.0 mi SE 4.6 mph - N/A   Clear
9:13 AM 62.6 °F - 47.1 °F 57% 30.10 in 10.0 mi Calm Calm - N/A   Clear
9:33 AM 64.2 °F - 48.9 °F 58% 30.10 in 10.0 mi Calm Calm - N/A   Clear
9:52 AM 66.0 °F - 51.1 °F 59% 30.10 in 10.0 mi Calm Calm - N/A   Clear
10:13 AM 67.5 °F - 52.3 °F 58% 30.10 in 10.0 mi Calm Calm - N/A   Clear
10:33 AM 68.2 °F - 52.9 °F 58% 30.10 in 10.0 mi Calm Calm - N/A   Clear
10:52 AM 69.1 °F - 54.0 °F 58% 30.10 in 10.0 mi ESE 3.5 mph - N/A   Clear
11:13 AM 69.8 °F - 53.6 °F 56% 30.10 in 10.0 mi SSE 4.6 mph - N/A   Clear
11:53 AM 71.8 °F - 52.3 °F 50% 30.09 in 10.0 mi NE 4.6 mph - N/A   Clear
12:13 PM 72.1 °F - 49.6 °F 45% 30.09 in 10.0 mi SE 6.9 mph - N/A   Clear
12:33 PM 72.7 °F - 52.0 °F 48% 30.09 in 10.0 mi ESE 6.9 mph - N/A   Clear
12:53 PM 73.4 °F - 52.2 °F 47% 30.08 in 10.0 mi ENE 8.1 mph - N/A   Scattered Clouds
1:12 PM 72.9 °F - 50.0 °F 44% 30.08 in 10.0 mi SE 5.8 mph - N/A   Clear
1:33 PM 73.2 °F - 50.7 °F 45% 30.07 in 10.0 mi East 5.8 mph - N/A   Clear
1:53 PM 73.2 °F - 51.3 °F 46% 30.08 in 10.0 mi East 6.9 mph - N/A   Clear
2:12 PM 72.9 °F - 46.9 °F 40% 30.08 in 10.0 mi ESE 6.9 mph - N/A   Clear
2:33 PM 72.7 °F - 47.1 °F 40% 30.07 in 10.0 mi ESE 8.1 mph - N/A   Clear
2:53 PM 72.9 °F - 50.0 °F 44% 30.07 in 10.0 mi ESE 6.9 mph - N/A   Clear
3:13 PM 73.0 °F - 48.7 °F 42% 30.07 in 10.0 mi East 8.1 mph 19.6 mph N/A   Clear
3:33 PM 73.0 °F - 48.4 °F 42% 30.06 in 10.0 mi SE 6.9 mph - N/A   Clear
3:53 PM 73.0 °F - 49.1 °F 43% 30.06 in 10.0 mi East 6.9 mph - N/A   Clear
4:13 PM 73.6 °F - 50.4 °F 44% 30.05 in 10.0 mi ENE 9.2 mph - N/A   Clear
4:33 PM 72.9 °F - 50.7 °F 46% 30.05 in 10.0 mi ENE 10.4 mph 16.1 mph N/A   Clear
4:53 PM 72.7 °F - 50.7 °F 46% 30.04 in 10.0 mi ENE 5.8 mph - N/A   Clear
5:13 PM 72.5 °F - 48.9 °F 43% 30.04 in 10.0 mi NE 4.6 mph - N/A   Clear
5:33 PM 72.7 °F - 48.9 °F 43% 30.04 in 10.0 mi ENE 5.8 mph - N/A   Clear
5:53 PM 72.1 °F - 46.9 °F 41% 30.04 in 10.0 mi ENE 6.9 mph - N/A   Clear
6:13 PM 71.4 °F - 46.0 °F 40% 30.04 in 10.0 mi NE 5.8 mph - N/A   Clear
6:33 PM 70.5 °F - 46.8 °F 43% 30.04 in 10.0 mi NNE 6.9 mph - N/A   Clear
6:53 PM 69.3 °F - 45.7 °F 43% 30.04 in 10.0 mi NE 4.6 mph - N/A   Clear
7:13 PM 68.0 °F - 41.7 °F 38% 30.04 in 10.0 mi NE 5.8 mph - N/A   Clear
7:33 PM 66.4 °F - 35.8 °F 32% 30.05 in 10.0 mi NE 8.1 mph - N/A   Clear
7:53 PM 64.8 °F - 36.1 °F 35% 30.05 in 10.0 mi NE 5.8 mph - N/A   Clear
8:13 PM 63.5 °F - 36.1 °F 36% 30.05 in 10.0 mi NE 5.8 mph - N/A   Clear
8:33 PM 61.2 °F - 35.6 °F 39% 30.05 in 10.0 mi ENE 4.6 mph - N/A   Clear
8:53 PM 59.9 °F - 35.2 °F 40% 30.05 in 10.0 mi NE 5.8 mph - N/A   Clear
9:13 PM 58.5 °F - 35.4 °F 42% 30.05 in 10.0 mi ENE 4.6 mph - N/A   Clear
9:33 PM 57.2 °F - 35.6 °F 44% 30.06 in 10.0 mi ENE 4.6 mph - N/A   Clear
9:53 PM 57.0 °F - 35.1 °F 44% 30.06 in 10.0 mi ENE 3.5 mph - N/A   Clear
10:13 PM 57.0 °F - 35.1 °F 44% 30.06 in 10.0 mi Calm Calm - N/A   Clear
10:33 PM 56.3 °F - 35.6 °F 46% 30.06 in 10.0 mi Calm Calm - N/A   Clear
10:53 PM 56.3 °F - 36.0 °F 46% 30.06 in 10.0 mi ENE 3.5 mph - N/A   Clear
11:13 PM 56.3 °F - 35.6 °F 46% 30.06 in 10.0 mi Calm Calm - N/A   Clear
11:33 PM 54.5 °F - 36.5 °F 51% 30.06 in 10.0 mi Calm Calm - N/A   Clear
11:52 PM 54.0 °F - 38.3 °F 55% 30.06 in 10.0 mi Calm Calm - N/A   Clear